AAL1776 KPHL-KBOS

Flight info

Callsign AAL1776
Flight time 1h 1m
Altitude 27000
Route DITCH LUIGI HNNAH JFK ROBUC3
Aircraft A20N/M-SDE2E3FGHIJ1RWXY/LB1

Departure

Time 2026-05-04 11:58
Airport Philadelphia International Airport (KPHL)

Arrival

Time 2026-05-04 13:00
Airport Boston Logan International Airport (KBOS)
Time Latitude Longitude Altitude Speed Heading
2026-05-04 11:45 39.87350 -75.24674 11 ft 0 kts 273°
2026-05-04 11:48 39.87350 -75.24665 11 ft 2 kts 273°
2026-05-04 11:49 39.87349 -75.24645 10 ft 2 kts 273°
2026-05-04 11:49 39.87349 -75.24626 11 ft 2 kts 273°
2026-05-04 11:49 39.87348 -75.24614 11 ft 1 kts 274°
2026-05-04 11:49 39.87351 -75.24595 11 ft 2 kts 240°
2026-05-04 11:50 39.87360 -75.24580 10 ft 2 kts 213°
2026-05-04 11:50 39.87374 -75.24573 11 ft 2 kts 186°
2026-05-04 11:50 39.87382 -75.24573 11 ft 1 kts 169°
2026-05-04 11:50 39.87387 -75.24573 11 ft 0 kts 173°
2026-05-04 11:53 39.87385 -75.24573 11 ft 1 kts 173°
2026-05-04 11:53 39.87354 -75.24567 11 ft 6 kts 168°
2026-05-04 11:53 39.87300 -75.24551 10 ft 9 kts 166°
2026-05-04 11:53 39.87226 -75.24524 10 ft 12 kts 147°
2026-05-04 11:55 39.87108 -75.23762 10 ft 15 kts 165°
2026-05-04 11:55 39.87003 -75.23726 11 ft 15 kts 174°
2026-05-04 11:56 39.86937 -75.23815 11 ft 15 kts 252°
2026-05-04 11:56 39.86903 -75.23915 11 ft 0 kts 221°
2026-05-04 11:57 39.86894 -75.23922 10 ft 3 kts 203°
2026-05-04 11:57 39.86850 -75.23930 10 ft 7 kts 185°
2026-05-04 11:57 39.86801 -75.23964 11 ft 8 kts 231°
2026-05-04 11:57 39.86769 -75.24078 12 ft 30 kts 255°
2026-05-04 11:58 39.86643 -75.24712 14 ft 110 kts 256°
2026-05-04 11:58 39.86398 -75.25947 39 ft 169 kts 255°
2026-05-04 11:58 39.86090 -75.27541 441 ft 190 kts 254°
2026-05-04 11:58 39.85763 -75.29272 1147 ft 206 kts 253°
2026-05-04 11:59 39.85240 -75.31046 1929 ft 219 kts 238°
2026-05-04 11:59 39.84513 -75.32758 2897 ft 226 kts 244°
2026-05-04 11:59 39.83868 -75.34664 3782 ft 238 kts 250°
2026-05-04 11:59 39.83332 -75.36707 4799 ft 243 kts 245°
2026-05-04 12:00 39.82244 -75.38337 5801 ft 251 kts 212°
2026-05-04 12:00 39.80558 -75.38916 6799 ft 263 kts 185°
2026-05-04 12:00 39.78738 -75.38413 7746 ft 279 kts 158°
2026-05-04 12:00 39.77232 -75.36800 8648 ft 295 kts 128°
2026-05-04 12:01 39.76502 -75.34284 9554 ft 307 kts 96°
2026-05-04 12:01 39.76561 -75.31549 10462 ft 312 kts 85°
2026-05-04 12:02 39.77627 -75.12257 14299 ft 386 kts 85°
2026-05-04 12:03 39.77787 -75.08742 15074 ft 391 kts 85°
2026-05-04 12:03 39.77943 -75.05248 15824 ft 396 kts 85°
2026-05-04 12:03 39.78101 -75.01681 16576 ft 400 kts 85°
2026-05-04 12:03 39.78259 -74.98058 17310 ft 405 kts 85°
2026-05-04 12:04 39.78419 -74.94375 18026 ft 410 kts 85°
2026-05-04 12:04 39.78581 -74.90665 18727 ft 414 kts 85°
2026-05-04 12:04 39.78743 -74.86925 19411 ft 418 kts 85°
2026-05-04 12:04 39.78903 -74.83167 20080 ft 422 kts 85°
2026-05-04 12:05 39.79063 -74.79375 20730 ft 426 kts 85°
2026-05-04 12:05 39.79251 -74.75496 21372 ft 430 kts 81°
2026-05-04 12:05 39.80059 -74.71828 22093 ft 423 kts 58°
2026-05-04 12:05 39.81814 -74.68921 22915 ft 409 kts 36°
2026-05-04 12:06 39.84073 -74.66716 23626 ft 407 kts 31°
2026-05-04 12:06 39.86398 -74.64565 24243 ft 411 kts 31°
2026-05-04 12:06 39.88722 -74.62380 24945 ft 412 kts 31°
2026-05-04 12:06 39.90997 -74.60195 25674 ft 411 kts 32°
2026-05-04 12:07 39.93301 -74.57949 26279 ft 413 kts 32°
2026-05-04 12:07 39.95582 -74.55709 26801 ft 417 kts 32°
2026-05-04 12:07 39.97909 -74.53413 27037 ft 420 kts 32°
2026-05-04 12:07 40.00235 -74.51112 27038 ft 420 kts 32°
2026-05-04 12:08 40.02539 -74.48827 27034 ft 420 kts 32°
2026-05-04 12:08 40.04887 -74.46498 27040 ft 420 kts 32°
2026-05-04 12:08 40.07195 -74.44207 27040 ft 420 kts 32°
2026-05-04 12:08 40.09507 -74.41912 27030 ft 420 kts 32°
2026-05-04 12:09 40.11854 -74.39580 27029 ft 420 kts 32°
2026-05-04 12:09 40.14171 -74.37277 27027 ft 420 kts 32°
2026-05-04 12:09 40.16492 -74.34965 27030 ft 420 kts 33°
2026-05-04 12:09 40.18812 -74.32652 27028 ft 420 kts 33°
2026-05-04 12:10 40.21110 -74.30359 27024 ft 420 kts 33°
2026-05-04 12:10 40.23423 -74.28049 27032 ft 419 kts 33°
2026-05-04 12:10 40.25767 -74.25703 27029 ft 420 kts 33°
2026-05-04 12:10 40.28065 -74.23404 27028 ft 420 kts 33°
2026-05-04 12:11 40.30396 -74.21069 27036 ft 420 kts 33°
2026-05-04 12:11 40.32703 -74.18758 27030 ft 420 kts 33°
2026-05-04 12:11 40.34994 -74.16460 27028 ft 420 kts 33°
2026-05-04 12:11 40.37331 -74.14111 27031 ft 419 kts 33°
2026-05-04 12:12 40.39631 -74.11797 27028 ft 420 kts 33°
2026-05-04 12:12 40.41947 -74.09467 27028 ft 419 kts 33°
2026-05-04 12:12 40.44264 -74.07130 27024 ft 420 kts 33°
2026-05-04 12:12 40.46460 -74.04653 27019 ft 422 kts 39°
2026-05-04 12:13 40.48497 -74.01884 27025 ft 423 kts 44°
2026-05-04 12:14 40.61162 -73.80714 27015 ft 421 kts 47°
2026-05-04 12:15 40.62976 -73.77695 27024 ft 421 kts 46°
2026-05-04 12:15 40.64889 -73.74781 27022 ft 421 kts 44°
2026-05-04 12:15 40.66842 -73.71925 27022 ft 421 kts 43°
2026-05-04 12:15 40.68804 -73.69072 27018 ft 421 kts 43°
2026-05-04 12:16 40.70781 -73.66193 27024 ft 421 kts 43°
2026-05-04 12:16 40.72744 -73.63328 27020 ft 421 kts 43°
2026-05-04 12:16 40.74683 -73.60491 27014 ft 421 kts 43°
2026-05-04 12:16 40.76638 -73.57626 27017 ft 421 kts 43°
2026-05-04 12:17 40.78599 -73.54745 27017 ft 421 kts 43°
2026-05-04 12:17 40.80551 -73.51874 27013 ft 422 kts 43°
2026-05-04 12:17 40.82497 -73.49010 27020 ft 422 kts 43°
2026-05-04 12:17 40.84454 -73.46127 27021 ft 422 kts 43°
2026-05-04 12:18 40.86428 -73.43218 27018 ft 422 kts 43°
2026-05-04 12:18 40.88374 -73.40353 27018 ft 422 kts 43°
2026-05-04 12:18 40.90331 -73.37467 27012 ft 423 kts 43°
2026-05-04 12:18 40.92284 -73.34583 27013 ft 423 kts 44°
2026-05-04 12:19 40.94250 -73.31676 26996 ft 424 kts 44°
2026-05-04 12:19 40.96196 -73.28796 26998 ft 424 kts 44°
2026-05-04 12:19 40.98171 -73.25868 27003 ft 424 kts 44°
2026-05-04 12:19 41.00119 -73.22977 27003 ft 425 kts 44°
2026-05-04 12:20 41.02095 -73.20043 26998 ft 425 kts 44°
2026-05-04 12:20 41.04062 -73.17120 27002 ft 425 kts 44°
2026-05-04 12:20 41.06001 -73.14235 27001 ft 425 kts 44°
2026-05-04 12:20 41.07982 -73.11284 27005 ft 425 kts 44°
2026-05-04 12:21 41.09919 -73.08395 26996 ft 425 kts 44°
2026-05-04 12:21 41.11898 -73.05439 26993 ft 425 kts 44°
2026-05-04 12:21 41.13845 -73.02528 27001 ft 426 kts 44°
2026-05-04 12:21 41.15806 -72.99594 26996 ft 426 kts 44°
2026-05-04 12:22 41.17762 -72.96667 26999 ft 425 kts 44°
2026-05-04 12:22 41.19701 -72.93678 26924 ft 424 kts 47°
2026-05-04 12:22 41.21426 -72.90528 26282 ft 430 kts 53°
2026-05-04 12:22 41.22940 -72.87078 25276 ft 441 kts 58°
2026-05-04 12:23 41.24341 -72.83450 24495 ft 443 kts 60°
2026-05-04 12:23 41.25709 -72.79803 23843 ft 441 kts 60°
2026-05-04 12:23 41.27067 -72.76184 23122 ft 441 kts 60°
2026-05-04 12:23 41.28418 -72.72600 22804 ft 430 kts 60°
2026-05-04 12:24 41.29745 -72.69087 22822 ft 423 kts 60°
2026-05-04 12:24 41.31057 -72.65633 22851 ft 422 kts 59°
2026-05-04 12:24 41.32391 -72.62125 22878 ft 422 kts 60°
2026-05-04 12:24 41.33707 -72.58662 22902 ft 422 kts 60°
2026-05-04 12:25 41.35023 -72.55196 22929 ft 422 kts 59°
2026-05-04 12:25 41.36341 -72.51716 22958 ft 422 kts 60°
2026-05-04 12:25 41.37652 -72.48256 22972 ft 422 kts 59°
2026-05-04 12:25 41.38980 -72.44746 22978 ft 422 kts 59°
2026-05-04 12:26 41.40282 -72.41296 22981 ft 422 kts 60°
2026-05-04 12:26 41.41606 -72.37791 22977 ft 422 kts 60°
2026-05-04 12:26 41.42918 -72.34309 22976 ft 422 kts 60°
2026-05-04 12:26 41.44228 -72.30826 22976 ft 423 kts 60°
2026-05-04 12:27 41.45547 -72.27316 22977 ft 423 kts 60°
2026-05-04 12:27 41.46861 -72.23811 22971 ft 423 kts 60°
2026-05-04 12:27 41.48177 -72.20300 22975 ft 423 kts 60°
2026-05-04 12:27 41.49465 -72.16808 22967 ft 423 kts 61°
2026-05-04 12:28 41.50745 -72.13306 22975 ft 423 kts 61°
2026-05-04 12:28 41.52040 -72.09754 22960 ft 423 kts 61°
2026-05-04 12:28 41.53324 -72.06233 22716 ft 425 kts 61°
2026-05-04 12:28 41.54622 -72.02676 21839 ft 431 kts 61°
2026-05-04 12:29 41.55883 -71.99056 21038 ft 435 kts 64°
2026-05-04 12:29 41.57019 -71.95369 20394 ft 433 kts 65°
2026-05-04 12:29 41.58133 -71.91625 19833 ft 429 kts 66°
2026-05-04 12:29 41.59208 -71.87994 19287 ft 425 kts 66°
2026-05-04 12:30 41.60284 -71.84364 18739 ft 421 kts 66°
2026-05-04 12:30 41.61351 -71.80750 18203 ft 417 kts 66°
2026-05-04 12:30 41.62402 -71.77191 17672 ft 413 kts 66°
2026-05-04 12:30 41.63446 -71.73648 17137 ft 409 kts 66°
2026-05-04 12:31 41.64488 -71.70111 16694 ft 403 kts 66°
2026-05-04 12:31 41.65491 -71.66697 16475 ft 394 kts 66°
2026-05-04 12:31 41.66481 -71.63321 16239 ft 387 kts 66°
2026-05-04 12:31 41.67442 -71.60041 16004 ft 376 kts 66°
2026-05-04 12:32 41.68373 -71.56855 15929 ft 360 kts 66°
2026-05-04 12:32 41.70176 -71.50699 15975 ft 356 kts 65°
2026-05-04 12:32 41.71077 -71.47620 15944 ft 357 kts 65°
2026-05-04 12:33 41.72001 -71.44521 15487 ft 357 kts 63°
2026-05-04 12:33 41.73055 -71.41572 15043 ft 354 kts 58°
2026-05-04 12:33 41.74252 -71.38705 14617 ft 351 kts 56°
2026-05-04 12:33 41.75473 -71.35879 14203 ft 348 kts 56°
2026-05-04 12:34 41.76677 -71.33095 13800 ft 345 kts 57°
2026-05-04 12:34 41.77860 -71.30341 13401 ft 342 kts 57°
2026-05-04 12:34 41.79040 -71.27584 12998 ft 339 kts 57°
2026-05-04 12:34 41.80201 -71.24864 12602 ft 337 kts 57°
2026-05-04 12:35 41.81354 -71.22154 12210 ft 335 kts 57°
2026-05-04 12:35 41.82497 -71.19467 11818 ft 333 kts 57°
2026-05-04 12:35 41.83643 -71.16768 11427 ft 331 kts 57°
2026-05-04 12:35 41.84767 -71.14120 11092 ft 326 kts 57°
2026-05-04 12:36 41.85855 -71.11554 11025 ft 315 kts 57°
2026-05-04 12:36 41.86963 -71.08988 11027 ft 320 kts 56°
2026-05-04 12:36 41.88083 -71.06410 11026 ft 320 kts 56°
2026-05-04 12:36 41.89210 -71.03812 11019 ft 321 kts 56°
2026-05-04 12:37 41.90322 -71.01241 11013 ft 321 kts 56°
2026-05-04 12:37 41.91441 -70.98648 11014 ft 321 kts 57°
2026-05-04 12:37 41.92561 -70.96053 11016 ft 321 kts 57°
2026-05-04 12:37 41.93668 -70.93478 11015 ft 321 kts 57°
2026-05-04 12:38 41.94789 -70.90868 11017 ft 321 kts 56°
2026-05-04 12:38 41.95905 -70.88265 11012 ft 321 kts 56°
2026-05-04 12:38 41.97020 -70.85667 11009 ft 322 kts 56°
2026-05-04 12:38 41.98132 -70.83072 10990 ft 322 kts 56°
2026-05-04 12:39 41.99245 -70.80479 10627 ft 324 kts 56°
2026-05-04 12:39 42.00375 -70.77866 10231 ft 322 kts 54°
2026-05-04 12:39 42.01635 -70.75429 9903 ft 314 kts 46°
2026-05-04 12:39 42.03043 -70.73225 9886 ft 311 kts 43°
2026-05-04 12:40 42.04499 -70.71062 9549 ft 311 kts 42°
2026-05-04 12:40 42.05951 -70.68920 9188 ft 310 kts 43°
2026-05-04 12:40 42.07386 -70.66791 8834 ft 308 kts 43°
2026-05-04 12:40 42.08815 -70.64656 8482 ft 306 kts 43°
2026-05-04 12:41 42.10259 -70.62580 8123 ft 301 kts 35°
2026-05-04 12:41 42.11991 -70.61225 7872 ft 282 kts 11°
2026-05-04 12:41 42.13892 -70.60620 7898 ft 280 kts
2026-05-04 12:41 42.15815 -70.60128 7922 ft 280 kts
2026-05-04 12:42 42.17737 -70.59640 7722 ft 281 kts
2026-05-04 12:42 42.19628 -70.59141 7358 ft 279 kts
2026-05-04 12:42 42.21539 -70.58621 6999 ft 277 kts
2026-05-04 12:42 42.23402 -70.58107 6661 ft 273 kts
2026-05-04 12:43 42.25258 -70.57590 6333 ft 270 kts
2026-05-04 12:43 42.27081 -70.57082 5990 ft 268 kts
2026-05-04 12:43 42.28915 -70.56570 5650 ft 265 kts
2026-05-04 12:43 42.30690 -70.56074 5328 ft 262 kts
2026-05-04 12:44 42.32454 -70.56052 5008 ft 243 kts 336°
2026-05-04 12:44 42.33838 -70.57085 4984 ft 215 kts 311°
2026-05-04 12:44 42.34864 -70.58426 4981 ft 198 kts 309°
2026-05-04 12:44 42.35815 -70.59696 4982 ft 191 kts 309°
2026-05-04 12:45 42.36758 -70.60960 4984 ft 191 kts 309°
2026-05-04 12:45 42.37708 -70.62226 4984 ft 191 kts 309°
2026-05-04 12:45 42.38661 -70.63489 4978 ft 191 kts 309°
2026-05-04 12:45 42.39609 -70.64743 4979 ft 192 kts 309°
2026-05-04 12:46 42.40564 -70.66003 4977 ft 192 kts 309°
2026-05-04 12:46 42.41525 -70.67271 4976 ft 192 kts 309°
2026-05-04 12:46 42.42471 -70.68519 4979 ft 191 kts 309°
2026-05-04 12:46 42.43423 -70.69771 4979 ft 186 kts 309°
2026-05-04 12:47 42.44294 -70.70906 5046 ft 166 kts 308°
2026-05-04 12:47 42.45134 -70.72015 5012 ft 170 kts 308°
2026-05-04 12:47 42.45978 -70.73135 4995 ft 171 kts 308°
2026-05-04 12:47 42.46840 -70.74277 4985 ft 171 kts 308°
2026-05-04 12:48 42.47680 -70.75387 4981 ft 171 kts 308°
2026-05-04 12:48 42.48543 -70.76527 4984 ft 171 kts 308°
2026-05-04 12:48 42.49399 -70.77657 4986 ft 172 kts 308°
2026-05-04 12:48 42.50251 -70.78784 4985 ft 172 kts 308°
2026-05-04 12:49 42.51109 -70.79919 4982 ft 173 kts 308°
2026-05-04 12:49 42.52014 -70.80994 4974 ft 178 kts 320°
2026-05-04 12:49 42.53240 -70.81505 4976 ft 193 kts 346°
2026-05-04 12:49 42.54611 -70.81205 4984 ft 205 kts
2026-05-04 12:50 42.55961 -70.80557 4986 ft 207 kts 11°
2026-05-04 12:50 42.57294 -70.79871 4983 ft 206 kts 12°
2026-05-04 12:50 42.58646 -70.79178 4983 ft 206 kts 12°
2026-05-04 12:50 42.60005 -70.78703 4786 ft 193 kts 348°
2026-05-04 12:51 42.61073 -70.79386 4529 ft 161 kts 303°
2026-05-04 12:51 42.61535 -70.80661 4379 ft 144 kts 279°
2026-05-04 12:51 42.61556 -70.81953 4237 ft 132 kts 261°
2026-05-04 12:51 42.61235 -70.83085 4105 ft 129 kts 246°
2026-05-04 12:52 42.60801 -70.84145 4100 ft 128 kts 246°
2026-05-04 12:52 42.60371 -70.85201 4086 ft 128 kts 246°
2026-05-04 12:52 42.59940 -70.86266 4074 ft 127 kts 246°
2026-05-04 12:52 42.59517 -70.87322 4051 ft 128 kts 246°
2026-05-04 12:53 42.59088 -70.88397 4017 ft 128 kts 246°
2026-05-04 12:53 42.58579 -70.89381 3982 ft 130 kts 232°
2026-05-04 12:53 42.57821 -70.90084 3879 ft 132 kts 216°
2026-05-04 12:53 42.56981 -70.90552 3705 ft 131 kts 211°
2026-05-04 12:54 42.56131 -70.90981 3563 ft 131 kts 210°
2026-05-04 12:54 42.55268 -70.91405 3423 ft 131 kts 210°
2026-05-04 12:54 42.54416 -70.91821 3287 ft 131 kts 210°
2026-05-04 12:54 42.53553 -70.92242 3152 ft 131 kts 210°
2026-05-04 12:55 42.52705 -70.92652 3048 ft 129 kts 210°
2026-05-04 12:55 42.51851 -70.93067 3011 ft 130 kts 210°
2026-05-04 12:55 42.51005 -70.93476 2836 ft 129 kts 210°
2026-05-04 12:55 42.50162 -70.93881 2670 ft 125 kts 210°
2026-05-04 12:56 42.49353 -70.94270 2501 ft 122 kts 210°
2026-05-04 12:56 42.48562 -70.94653 2340 ft 121 kts 210°
2026-05-04 12:56 42.47774 -70.95036 2181 ft 121 kts 210°
2026-05-04 12:56 42.46987 -70.95418 2025 ft 120 kts 210°
2026-05-04 12:57 42.46195 -70.95804 1857 ft 120 kts 209°
2026-05-04 12:57 42.45408 -70.96184 1693 ft 120 kts 209°
2026-05-04 12:57 42.44616 -70.96567 1533 ft 120 kts 208°
2026-05-04 12:57 42.43835 -70.96947 1368 ft 120 kts 207°
2026-05-04 12:58 42.43050 -70.97325 1210 ft 120 kts 207°
2026-05-04 12:58 42.42268 -70.97705 1050 ft 119 kts 207°
2026-05-04 12:58 42.41478 -70.98087 886 ft 119 kts 206°
2026-05-04 12:58 42.40707 -70.98461 730 ft 119 kts 206°
2026-05-04 12:59 42.39918 -70.98844 562 ft 119 kts 205°
2026-05-04 12:59 42.39142 -70.99220 408 ft 119 kts 204°
2026-05-04 12:59 42.38371 -70.99594 244 ft 118 kts 203°
2026-05-04 12:59 42.37590 -70.99967 92 ft 117 kts 203°
2026-05-04 13:00 42.36859 -71.00346 11 ft 101 kts 199°
2026-05-04 13:00 42.36359 -71.00584 15 ft 51 kts 199°
2026-05-04 13:00 42.36107 -71.00707 15 ft 34 kts 200°
2026-05-04 13:00 42.35954 -71.00857 18 ft 24 kts 229°
2026-05-04 13:01 42.35862 -71.01010 18 ft 17 kts 237°
2026-05-04 13:01 42.35838 -71.01163 18 ft 17 kts 275°
2026-05-04 13:01 42.35854 -71.01314 21 ft 15 kts 281°
2026-05-04 13:01 42.35870 -71.01456 21 ft 15 kts 279°
2026-05-04 13:02 42.35895 -71.01601 19 ft 15 kts 314°
2026-05-04 13:02 42.36002 -71.01592 18 ft 17 kts 20°
2026-05-04 13:02 42.36118 -71.01537 18 ft 17 kts 19°
2026-05-04 13:02 42.36235 -71.01479 18 ft 18 kts 20°
2026-05-04 13:03 42.36338 -71.01436 18 ft 13 kts
2026-05-04 13:03 42.36434 -71.01449 18 ft 9 kts 343°
2026-05-04 13:03 42.36468 -71.01465 18 ft 1 kts 342°